Year,Month,Day,Hour,Minute,Value (Times are PST for temperature in C)
2014,06,22,00,00,10.20
2014,06,22,00,01,10.20
2014,06,22,00,02,10.20
2014,06,22,00,03,10.20
2014,06,22,00,04,10.20
2014,06,22,00,05,10.10
2014,06,22,00,06,10.10
2014,06,22,00,07,10.10
2014,06,22,00,08,10.10
2014,06,22,00,09,10.10
2014,06,22,00,10,10.10
2014,06,22,00,11,10.00
2014,06,22,00,12,10.00
2014,06,22,00,13,10.00
2014,06,22,00,14,10.00
2014,06,22,00,15,9.90
2014,06,22,00,16,9.90
2014,06,22,00,17,9.90
2014,06,22,00,18,9.90
2014,06,22,00,19,9.90
2014,06,22,00,20,9.90
2014,06,22,00,21,9.90
2014,06,22,00,22,9.90
2014,06,22,00,23,9.80
2014,06,22,00,24,9.80
2014,06,22,00,25,9.80
2014,06,22,00,26,9.80
2014,06,22,00,27,9.80
2014,06,22,00,28,9.80
2014,06,22,00,29,9.80
2014,06,22,00,30,9.80
2014,06,22,00,31,9.80
2014,06,22,00,32,9.80
2014,06,22,00,33,9.80
2014,06,22,00,34,9.70
2014,06,22,00,35,9.70
2014,06,22,00,36,9.70
2014,06,22,00,37,9.70
2014,06,22,00,38,9.70
2014,06,22,00,39,9.70
2014,06,22,00,40,9.70
2014,06,22,00,41,9.70
2014,06,22,00,42,9.70
2014,06,22,00,43,9.70
2014,06,22,00,44,9.70
2014,06,22,00,45,9.70
2014,06,22,00,46,9.70
2014,06,22,00,47,9.70
2014,06,22,00,48,9.70
2014,06,22,00,49,9.70
2014,06,22,00,50,9.70
2014,06,22,00,51,9.70
2014,06,22,00,52,9.70
2014,06,22,00,53,9.70
2014,06,22,00,54,9.60
2014,06,22,00,55,9.60
2014,06,22,00,56,9.60
2014,06,22,00,57,9.60
2014,06,22,00,58,9.60
2014,06,22,00,59,9.60
2014,06,22,01,00,9.60
2014,06,22,01,01,9.60
2014,06,22,01,02,9.60
2014,06,22,01,03,9.60
2014,06,22,01,04,9.60
2014,06,22,01,05,9.50
2014,06,22,01,06,9.50
2014,06,22,01,07,9.50
2014,06,22,01,08,9.50
2014,06,22,01,09,9.50
2014,06,22,01,10,9.50
2014,06,22,01,11,9.50
2014,06,22,01,12,9.50
2014,06,22,01,13,9.40
2014,06,22,01,14,9.40
2014,06,22,01,15,9.40
2014,06,22,01,16,9.40
2014,06,22,01,17,9.40
2014,06,22,01,18,9.30
2014,06,22,01,19,9.30
2014,06,22,01,20,9.30
2014,06,22,01,21,9.30
2014,06,22,01,22,9.30
2014,06,22,01,23,9.30
2014,06,22,01,24,9.30
2014,06,22,01,25,9.30
2014,06,22,01,26,9.30
2014,06,22,01,27,9.30
2014,06,22,01,28,9.30
2014,06,22,01,29,9.30
2014,06,22,01,30,9.30
2014,06,22,01,31,9.30
2014,06,22,01,32,9.30
2014,06,22,01,33,9.30
2014,06,22,01,34,9.20
2014,06,22,01,35,9.20
2014,06,22,01,36,9.20
2014,06,22,01,37,9.20
2014,06,22,01,38,9.20
2014,06,22,01,39,9.20
2014,06,22,01,40,9.20
2014,06,22,01,41,9.20
2014,06,22,01,42,9.20
2014,06,22,01,43,9.20
2014,06,22,01,44,9.20
2014,06,22,01,45,9.20
2014,06,22,01,46,9.20
2014,06,22,01,47,9.20
2014,06,22,01,48,9.20
2014,06,22,01,49,9.20
2014,06,22,01,50,9.20
2014,06,22,01,51,9.20
2014,06,22,01,52,9.20
2014,06,22,01,53,9.10
2014,06,22,01,54,9.10
2014,06,22,01,55,9.10
2014,06,22,01,56,9.10
2014,06,22,01,57,9.10
2014,06,22,01,58,9.10
2014,06,22,01,59,9.10
2014,06,22,02,00,9.10
2014,06,22,02,01,9.10
2014,06,22,02,02,9.10
2014,06,22,02,03,9.10
2014,06,22,02,04,9.10
2014,06,22,02,05,9.10
2014,06,22,02,06,9.10
2014,06,22,02,07,9.00
2014,06,22,02,08,9.00
2014,06,22,02,09,9.00
2014,06,22,02,10,9.00
2014,06,22,02,11,9.00
2014,06,22,02,12,9.00
2014,06,22,02,13,9.00
2014,06,22,02,14,9.00
2014,06,22,02,15,9.00
2014,06,22,02,16,9.00
2014,06,22,02,17,9.00
2014,06,22,02,18,8.90
2014,06,22,02,19,8.90
2014,06,22,02,20,8.90
2014,06,22,02,21,8.90
2014,06,22,02,22,8.90
2014,06,22,02,23,8.90
2014,06,22,02,24,8.90
2014,06,22,02,25,8.90
2014,06,22,02,26,8.90
2014,06,22,02,27,8.90
2014,06,22,02,28,8.90
2014,06,22,02,29,8.90
2014,06,22,02,30,8.80
2014,06,22,02,31,8.80
2014,06,22,02,32,8.80
2014,06,22,02,33,8.80
2014,06,22,02,34,8.80
2014,06,22,02,35,8.80
2014,06,22,02,36,8.80
2014,06,22,02,37,8.80
2014,06,22,02,38,8.80
2014,06,22,02,39,8.80
2014,06,22,02,40,8.80
2014,06,22,02,41,8.80
2014,06,22,02,42,8.80
2014,06,22,02,43,8.80
2014,06,22,02,44,8.70
2014,06,22,02,45,8.70
2014,06,22,02,46,8.70
2014,06,22,02,47,8.70
2014,06,22,02,48,8.80
2014,06,22,02,49,8.80
2014,06,22,02,50,8.80
2014,06,22,02,51,8.80
2014,06,22,02,52,8.80
2014,06,22,02,53,8.80
2014,06,22,02,54,8.80
2014,06,22,02,55,8.80
2014,06,22,02,56,8.80
2014,06,22,02,57,8.80
2014,06,22,02,58,8.80
2014,06,22,02,59,8.80
2014,06,22,03,00,8.70
2014,06,22,03,01,8.70
2014,06,22,03,02,8.70
2014,06,22,03,03,8.70
2014,06,22,03,04,8.70
2014,06,22,03,05,8.70
2014,06,22,03,06,8.70
2014,06,22,03,07,8.70
2014,06,22,03,08,8.70
2014,06,22,03,09,8.70
2014,06,22,03,10,8.70
2014,06,22,03,11,8.70
2014,06,22,03,12,8.70
2014,06,22,03,13,8.70
2014,06,22,03,14,8.70
2014,06,22,03,15,8.70
2014,06,22,03,16,8.70
2014,06,22,03,17,8.70
2014,06,22,03,18,8.70
2014,06,22,03,19,8.70
2014,06,22,03,20,8.70
2014,06,22,03,21,8.70
2014,06,22,03,22,8.60
2014,06,22,03,23,8.60
2014,06,22,03,24,8.60
2014,06,22,03,25,8.60
2014,06,22,03,26,8.60
2014,06,22,03,27,8.70
2014,06,22,03,28,8.70
2014,06,22,03,29,8.70
2014,06,22,03,30,8.70
2014,06,22,03,31,8.70
2014,06,22,03,32,8.70
2014,06,22,03,33,8.60
2014,06,22,03,34,8.60
2014,06,22,03,35,8.60
2014,06,22,03,36,8.60
2014,06,22,03,37,8.60
2014,06,22,03,38,8.60
2014,06,22,03,39,8.60
2014,06,22,03,40,8.60
2014,06,22,03,41,8.70
2014,06,22,03,42,8.70
2014,06,22,03,43,8.70
2014,06,22,03,44,8.70
2014,06,22,03,45,8.70
2014,06,22,03,46,8.70
2014,06,22,03,47,8.70
2014,06,22,03,48,8.70
2014,06,22,03,49,8.70
2014,06,22,03,50,8.70
2014,06,22,03,51,8.70
2014,06,22,03,52,8.70
2014,06,22,03,53,8.70
2014,06,22,03,54,8.70
2014,06,22,03,55,8.70
2014,06,22,03,56,8.80
2014,06,22,03,57,8.80
2014,06,22,03,58,8.80
2014,06,22,03,59,8.80
2014,06,22,04,00,8.80
2014,06,22,04,01,8.80
2014,06,22,04,02,8.80
2014,06,22,04,03,8.90
2014,06,22,04,04,8.90
2014,06,22,04,05,8.90
2014,06,22,04,06,8.90
2014,06,22,04,07,8.90
2014,06,22,04,08,8.90
2014,06,22,04,09,9.00
2014,06,22,04,10,9.00
2014,06,22,04,11,9.00
2014,06,22,04,12,9.00
2014,06,22,04,13,9.00
2014,06,22,04,14,9.00
2014,06,22,04,15,9.00
2014,06,22,04,16,9.00
2014,06,22,04,17,9.00
2014,06,22,04,18,9.00
2014,06,22,04,19,9.00
2014,06,22,04,20,9.00
2014,06,22,04,21,9.00
2014,06,22,04,22,9.10
2014,06,22,04,23,9.10
2014,06,22,04,24,9.10
2014,06,22,04,25,9.10
2014,06,22,04,26,9.10
2014,06,22,04,27,9.10
2014,06,22,04,28,9.10
2014,06,22,04,29,9.10
2014,06,22,04,30,9.10
2014,06,22,04,31,9.20
2014,06,22,04,32,9.20
2014,06,22,04,33,9.20
2014,06,22,04,34,9.20
2014,06,22,04,35,9.20
2014,06,22,04,36,9.20
2014,06,22,04,37,9.20
2014,06,22,04,38,9.20
2014,06,22,04,39,9.20
2014,06,22,04,40,9.20
2014,06,22,04,41,9.20
2014,06,22,04,42,9.20
2014,06,22,04,43,9.30
2014,06,22,04,44,9.30
2014,06,22,04,45,9.20
2014,06,22,04,46,9.30
2014,06,22,04,47,9.30
2014,06,22,04,48,9.30
2014,06,22,04,49,9.30
2014,06,22,04,50,9.30
2014,06,22,04,51,9.30
2014,06,22,04,52,9.30
2014,06,22,04,53,9.30
2014,06,22,04,54,9.30
2014,06,22,04,55,9.40
2014,06,22,04,56,9.40
2014,06,22,04,57,9.40
2014,06,22,04,58,9.40
2014,06,22,04,59,9.50
2014,06,22,05,00,9.50
2014,06,22,05,01,9.50
2014,06,22,05,02,9.60
2014,06,22,05,03,9.60
2014,06,22,05,04,9.60
2014,06,22,05,05,9.60
2014,06,22,05,06,9.60
2014,06,22,05,07,9.70
2014,06,22,05,08,9.70
2014,06,22,05,09,9.70
2014,06,22,05,10,9.70
2014,06,22,05,11,9.70
2014,06,22,05,12,9.70
2014,06,22,05,13,9.70
2014,06,22,05,14,9.70
2014,06,22,05,15,9.80
2014,06,22,05,16,9.80
2014,06,22,05,17,9.80
2014,06,22,05,18,9.80
2014,06,22,05,19,9.80
2014,06,22,05,20,9.80
2014,06,22,05,21,9.80
2014,06,22,05,22,9.90
2014,06,22,05,23,9.90
2014,06,22,05,24,9.90
2014,06,22,05,25,9.90
2014,06,22,05,26,9.90
2014,06,22,05,27,9.90
2014,06,22,05,28,9.90
2014,06,22,05,29,9.90
2014,06,22,05,30,9.90
2014,06,22,05,31,9.90
2014,06,22,05,32,9.90
2014,06,22,05,33,9.90
2014,06,22,05,34,10.00
2014,06,22,05,35,10.00
2014,06,22,05,36,10.00
2014,06,22,05,37,10.00
2014,06,22,05,38,10.00
2014,06,22,05,39,10.00
2014,06,22,05,40,10.10
2014,06,22,05,41,10.10
2014,06,22,05,42,10.10
2014,06,22,05,43,10.10
2014,06,22,05,44,10.10
2014,06,22,05,45,10.10
2014,06,22,05,46,10.10
2014,06,22,05,47,10.10
2014,06,22,05,48,10.20
2014,06,22,05,49,10.20
2014,06,22,05,50,10.20
2014,06,22,05,51,10.20
2014,06,22,05,52,10.20
2014,06,22,05,53,10.20
2014,06,22,05,54,10.20
2014,06,22,05,55,10.20
2014,06,22,05,56,10.20
2014,06,22,05,57,10.20
2014,06,22,05,58,10.20
2014,06,22,05,59,10.20
2014,06,22,06,00,10.20
2014,06,22,06,01,10.20
2014,06,22,06,02,10.20
2014,06,22,06,03,10.20
2014,06,22,06,04,10.20
2014,06,22,06,05,10.20
2014,06,22,06,06,10.20
2014,06,22,06,07,10.20
2014,06,22,06,08,10.20
2014,06,22,06,09,10.20
2014,06,22,06,10,10.30
2014,06,22,06,11,10.30
2014,06,22,06,12,10.30
2014,06,22,06,13,10.30
2014,06,22,06,14,10.30
2014,06,22,06,15,10.30
2014,06,22,06,16,10.30
2014,06,22,06,17,10.30
2014,06,22,06,18,10.40
2014,06,22,06,19,10.40
2014,06,22,06,20,10.40
2014,06,22,06,21,10.40
2014,06,22,06,22,10.40
2014,06,22,06,23,10.50
2014,06,22,06,24,10.50
2014,06,22,06,25,10.50
2014,06,22,06,26,10.50
2014,06,22,06,27,10.50
2014,06,22,06,28,10.60
2014,06,22,06,29,10.60
2014,06,22,06,30,10.60
2014,06,22,06,31,10.60
2014,06,22,06,32,10.50
2014,06,22,06,33,10.50
2014,06,22,06,34,10.50
2014,06,22,06,35,10.50
2014,06,22,06,36,10.50
2014,06,22,06,37,10.50
2014,06,22,06,38,10.60
2014,06,22,06,39,10.60
2014,06,22,06,40,10.60
2014,06,22,06,41,10.60
2014,06,22,06,42,10.60
2014,06,22,06,43,10.60
2014,06,22,06,44,10.60
2014,06,22,06,45,10.60
2014,06,22,06,46,10.60
2014,06,22,06,47,10.60
2014,06,22,06,48,10.70
2014,06,22,06,49,10.70
2014,06,22,06,50,10.70
2014,06,22,06,51,10.70
2014,06,22,06,52,10.70
2014,06,22,06,53,10.70
2014,06,22,06,54,10.80
2014,06,22,06,55,10.80
2014,06,22,06,56,10.80
2014,06,22,06,57,10.80
2014,06,22,06,58,10.80
2014,06,22,06,59,10.80
2014,06,22,07,00,10.80
2014,06,22,07,01,10.80
2014,06,22,07,02,10.90
2014,06,22,07,03,10.90
2014,06,22,07,04,10.90
2014,06,22,07,05,10.90
2014,06,22,07,06,10.90
2014,06,22,07,07,10.90
2014,06,22,07,08,11.00
2014,06,22,07,09,11.00
2014,06,22,07,10,11.00
2014,06,22,07,11,11.10
2014,06,22,07,12,11.10
2014,06,22,07,13,11.10
2014,06,22,07,14,11.10
2014,06,22,07,15,11.10
2014,06,22,07,16,11.10
2014,06,22,07,17,11.20
2014,06,22,07,18,11.20
2014,06,22,07,19,11.20
2014,06,22,07,20,11.20
2014,06,22,07,21,11.20
2014,06,22,07,22,11.20
2014,06,22,07,23,11.30
2014,06,22,07,24,11.30
2014,06,22,07,25,11.30
2014,06,22,07,26,11.30
2014,06,22,07,27,11.30
2014,06,22,07,28,11.30
2014,06,22,07,29,11.30
2014,06,22,07,30,11.30
2014,06,22,07,31,11.40
2014,06,22,07,32,11.40
2014,06,22,07,33,11.40
2014,06,22,07,34,11.40
2014,06,22,07,35,11.50
2014,06,22,07,36,11.50
2014,06,22,07,37,11.50
2014,06,22,07,38,11.50
2014,06,22,07,39,11.60
2014,06,22,07,40,11.60
2014,06,22,07,41,11.60
2014,06,22,07,42,11.70
2014,06,22,07,43,11.70
2014,06,22,07,44,11.70
2014,06,22,07,45,11.70
2014,06,22,07,46,11.80
2014,06,22,07,47,11.80
2014,06,22,07,48,11.80
2014,06,22,07,49,11.90
2014,06,22,07,50,11.90
2014,06,22,07,51,11.90
2014,06,22,07,52,12.00
2014,06,22,07,53,12.00
2014,06,22,07,54,12.00
2014,06,22,07,55,12.10
2014,06,22,07,56,12.10
2014,06,22,07,57,12.10
2014,06,22,07,58,12.10
2014,06,22,07,59,12.20
2014,06,22,08,00,12.20
2014,06,22,08,01,12.20
2014,06,22,08,02,12.30
2014,06,22,08,03,12.30
2014,06,22,08,04,12.30
2014,06,22,08,05,12.40
2014,06,22,08,06,12.40
2014,06,22,08,07,12.40
2014,06,22,08,08,12.50
2014,06,22,08,09,12.50
2014,06,22,08,10,12.60
2014,06,22,08,11,12.60
2014,06,22,08,12,12.60
2014,06,22,08,13,12.70
2014,06,22,08,14,12.70
2014,06,22,08,15,12.70
2014,06,22,08,16,12.70
2014,06,22,08,17,12.80
2014,06,22,08,18,12.80
2014,06,22,08,19,12.90
2014,06,22,08,20,12.90
2014,06,22,08,21,12.90
2014,06,22,08,22,13.00
2014,06,22,08,23,13.00
2014,06,22,08,24,13.00
2014,06,22,08,25,13.10
2014,06,22,08,26,13.10
2014,06,22,08,27,13.10
2014,06,22,08,28,13.10
2014,06,22,08,29,13.20
2014,06,22,08,30,13.20
2014,06,22,08,31,13.20
2014,06,22,08,32,13.20
2014,06,22,08,33,13.20
2014,06,22,08,34,13.30
2014,06,22,08,35,13.30
2014,06,22,08,36,13.30
2014,06,22,08,37,13.30
2014,06,22,08,38,13.30
2014,06,22,08,39,13.40
2014,06,22,08,40,13.40
2014,06,22,08,41,13.40
2014,06,22,08,42,13.50
2014,06,22,08,43,13.50
2014,06,22,08,44,13.60
2014,06,22,08,45,13.60
2014,06,22,08,46,13.60
2014,06,22,08,47,13.60
2014,06,22,08,48,13.70
2014,06,22,08,49,13.70
2014,06,22,08,50,13.70
2014,06,22,08,51,13.70
2014,06,22,08,52,13.80
2014,06,22,08,53,13.80
2014,06,22,08,54,13.80
2014,06,22,08,55,13.80
2014,06,22,08,56,13.90
2014,06,22,08,57,13.90
2014,06,22,08,58,13.90
2014,06,22,08,59,13.90
2014,06,22,09,00,14.00
2014,06,22,09,01,14.00
2014,06,22,09,02,14.10
2014,06,22,09,03,14.10
2014,06,22,09,04,14.20
2014,06,22,09,05,14.20
2014,06,22,09,06,14.20
2014,06,22,09,07,14.30
2014,06,22,09,08,14.30
2014,06,22,09,09,14.30
2014,06,22,09,10,14.40
2014,06,22,09,11,14.40
2014,06,22,09,12,14.50
2014,06,22,09,13,14.50
2014,06,22,09,14,14.60
2014,06,22,09,15,14.60
2014,06,22,09,16,14.70
2014,06,22,09,17,14.70
2014,06,22,09,18,14.70
2014,06,22,09,19,14.80
2014,06,22,09,20,14.80
2014,06,22,09,21,14.80
2014,06,22,09,22,14.90
2014,06,22,09,23,14.90
2014,06,22,09,24,15.00
2014,06,22,09,25,15.00
2014,06,22,09,26,15.10
2014,06,22,09,27,15.10
2014,06,22,09,28,15.10
2014,06,22,09,29,15.20
2014,06,22,09,30,15.20
2014,06,22,09,31,15.30
2014,06,22,09,32,15.30
2014,06,22,09,33,15.30
2014,06,22,09,34,15.40
2014,06,22,09,35,15.40
2014,06,22,09,36,15.40
2014,06,22,09,37,15.40
2014,06,22,09,38,15.50
2014,06,22,09,39,15.60
2014,06,22,09,40,15.60
2014,06,22,09,41,15.70
2014,06,22,09,42,15.80
2014,06,22,09,43,15.90
2014,06,22,09,44,16.00
2014,06,22,09,45,16.20
2014,06,22,09,46,16.30
2014,06,22,09,47,16.40
2014,06,22,09,48,16.50
2014,06,22,09,49,16.60
2014,06,22,09,50,16.70
2014,06,22,09,51,16.70
2014,06,22,09,52,16.70
2014,06,22,09,53,16.80
2014,06,22,09,54,16.80
2014,06,22,09,55,16.90
2014,06,22,09,56,16.90
2014,06,22,09,57,16.90
2014,06,22,09,58,17.00
2014,06,22,09,59,17.00
2014,06,22,10,00,17.00
2014,06,22,10,01,17.00
2014,06,22,10,02,17.00
2014,06,22,10,03,17.00
2014,06,22,10,04,17.10
2014,06,22,10,05,17.10
2014,06,22,10,06,17.10
2014,06,22,10,07,17.10
2014,06,22,10,08,17.20
2014,06,22,10,09,17.20
2014,06,22,10,10,17.30
2014,06,22,10,11,17.20
2014,06,22,10,12,17.30
2014,06,22,10,13,17.30
2014,06,22,10,14,17.40
2014,06,22,10,15,17.40
2014,06,22,10,16,17.50
2014,06,22,10,17,17.50
2014,06,22,10,18,17.60
2014,06,22,10,19,17.50
2014,06,22,10,20,17.50
2014,06,22,10,21,17.40
2014,06,22,10,22,17.40
2014,06,22,10,23,17.40
2014,06,22,10,24,17.40
2014,06,22,10,25,17.40
2014,06,22,10,26,17.50
2014,06,22,10,27,17.50
2014,06,22,10,28,17.50
2014,06,22,10,29,17.60
2014,06,22,10,30,17.60
2014,06,22,10,31,17.60
2014,06,22,10,32,17.70
2014,06,22,10,33,17.70
2014,06,22,10,34,17.70
2014,06,22,10,35,17.70
2014,06,22,10,36,17.80
2014,06,22,10,37,17.80
2014,06,22,10,38,17.90
2014,06,22,10,39,18.00
2014,06,22,10,40,18.00
2014,06,22,10,41,18.10
2014,06,22,10,42,18.10
2014,06,22,10,43,18.20
2014,06,22,10,44,18.20
2014,06,22,10,45,18.20
2014,06,22,10,46,18.10
2014,06,22,10,47,18.10
2014,06,22,10,48,18.10
2014,06,22,10,49,18.10
2014,06,22,10,50,18.10
2014,06,22,10,51,18.00
2014,06,22,10,52,17.90
2014,06,22,10,53,17.90
2014,06,22,10,54,17.90
2014,06,22,10,55,17.90
2014,06,22,10,56,18.00
2014,06,22,10,57,18.10
2014,06,22,10,58,18.20
2014,06,22,10,59,18.30
2014,06,22,11,00,18.40
2014,06,22,11,01,18.40
2014,06,22,11,02,18.50
2014,06,22,11,03,18.50
2014,06,22,11,04,18.50
2014,06,22,11,05,18.50
2014,06,22,11,06,18.50
2014,06,22,11,07,18.50
2014,06,22,11,08,18.40
2014,06,22,11,09,18.40
2014,06,22,11,10,18.40
2014,06,22,11,11,18.50
2014,06,22,11,12,18.50
2014,06,22,11,13,18.60
2014,06,22,11,14,18.60
2014,06,22,11,15,18.60
2014,06,22,11,16,18.60
2014,06,22,11,17,18.60
2014,06,22,11,18,18.60
2014,06,22,11,19,18.60
2014,06,22,11,20,18.60
2014,06,22,11,21,18.60
2014,06,22,11,22,18.60
2014,06,22,11,23,18.60
2014,06,22,11,24,18.70
2014,06,22,11,25,18.60
2014,06,22,11,26,18.60
2014,06,22,11,27,18.70
2014,06,22,11,28,18.70
2014,06,22,11,29,18.70
2014,06,22,11,30,18.70
2014,06,22,11,31,18.70
2014,06,22,11,32,18.60
2014,06,22,11,33,18.60
2014,06,22,11,34,18.60
2014,06,22,11,35,18.60
2014,06,22,11,36,18.60
2014,06,22,11,37,18.60
2014,06,22,11,38,18.60
2014,06,22,11,39,18.60
2014,06,22,11,40,18.70
2014,06,22,11,41,18.70
2014,06,22,11,42,18.80
2014,06,22,11,43,19.00
2014,06,22,11,44,19.10
2014,06,22,11,45,19.20
2014,06,22,11,46,19.20
2014,06,22,11,47,19.20
2014,06,22,11,48,19.30
2014,06,22,11,49,19.30
2014,06,22,11,50,19.30
2014,06,22,11,51,19.10
2014,06,22,11,52,19.00
2014,06,22,11,53,18.90
2014,06,22,11,54,18.80
2014,06,22,11,55,18.80
2014,06,22,11,56,18.80
2014,06,22,11,57,18.80
2014,06,22,11,58,18.80
2014,06,22,11,59,18.70
2014,06,22,12,00,18.60
2014,06,22,12,01,18.60
2014,06,22,12,02,18.60
2014,06,22,12,03,18.70
2014,06,22,12,04,18.80
2014,06,22,12,05,18.90
2014,06,22,12,06,19.00
2014,06,22,12,07,19.10
2014,06,22,12,08,19.10
2014,06,22,12,09,19.20
2014,06,22,12,10,19.10
2014,06,22,12,11,19.00
2014,06,22,12,12,19.00
2014,06,22,12,13,19.00
2014,06,22,12,14,19.00
2014,06,22,12,15,19.00
2014,06,22,12,16,18.90
2014,06,22,12,17,18.90
2014,06,22,12,18,18.90
2014,06,22,12,19,18.90
2014,06,22,12,20,18.90
2014,06,22,12,21,18.90
2014,06,22,12,22,18.80
2014,06,22,12,23,18.80
2014,06,22,12,24,18.80
2014,06,22,12,25,18.80
2014,06,22,12,26,18.80
2014,06,22,12,27,18.90
2014,06,22,12,28,19.00
2014,06,22,12,29,19.00
2014,06,22,12,30,19.00
2014,06,22,12,31,19.00
2014,06,22,12,32,18.90
2014,06,22,12,33,18.90
2014,06,22,12,34,18.90
2014,06,22,12,35,18.90
2014,06,22,12,36,18.80
2014,06,22,12,37,18.70
2014,06,22,12,38,18.70
2014,06,22,12,39,18.80
2014,06,22,12,40,18.80
2014,06,22,12,41,18.80
2014,06,22,12,42,18.80
2014,06,22,12,43,18.90
2014,06,22,12,44,19.00
2014,06,22,12,45,19.10
2014,06,22,12,46,19.10
2014,06,22,12,47,19.10
2014,06,22,12,48,19.10
2014,06,22,12,49,19.00
2014,06,22,12,50,18.90
2014,06,22,12,51,18.90
2014,06,22,12,52,18.90
2014,06,22,12,53,18.90
2014,06,22,12,54,18.90
2014,06,22,12,55,18.90
2014,06,22,12,56,19.00
2014,06,22,12,57,19.00
2014,06,22,12,58,19.10
2014,06,22,12,59,19.20
2014,06,22,13,00,19.30
2014,06,22,13,01,19.30
2014,06,22,13,02,19.50
2014,06,22,13,03,19.60
2014,06,22,13,04,19.80
2014,06,22,13,05,19.90
2014,06,22,13,06,20.00
2014,06,22,13,07,20.10
2014,06,22,13,08,20.20
2014,06,22,13,09,20.30
2014,06,22,13,10,20.30
2014,06,22,13,11,20.40
2014,06,22,13,12,20.40
2014,06,22,13,13,20.40
2014,06,22,13,14,20.40
2014,06,22,13,15,20.40
2014,06,22,13,16,20.40
2014,06,22,13,17,20.40
2014,06,22,13,18,20.50
2014,06,22,13,19,20.50
2014,06,22,13,20,20.40
2014,06,22,13,21,20.30
2014,06,22,13,22,20.20
2014,06,22,13,23,20.20
2014,06,22,13,24,20.20
2014,06,22,13,25,20.30
2014,06,22,13,26,20.40
2014,06,22,13,27,20.50
2014,06,22,13,28,20.60
2014,06,22,13,29,20.60
2014,06,22,13,30,20.70
2014,06,22,13,31,20.70
2014,06,22,13,32,20.70
2014,06,22,13,33,20.70
2014,06,22,13,34,20.70
2014,06,22,13,35,20.70
2014,06,22,13,36,20.70
2014,06,22,13,37,20.70
2014,06,22,13,38,20.70
2014,06,22,13,39,20.80
2014,06,22,13,40,20.80
2014,06,22,13,41,20.90
2014,06,22,13,42,21.00
2014,06,22,13,43,21.00
2014,06,22,13,44,20.90
2014,06,22,13,45,20.80
2014,06,22,13,46,20.70
2014,06,22,13,47,20.70
2014,06,22,13,48,20.50
2014,06,22,13,49,20.50
2014,06,22,13,50,20.40
2014,06,22,13,51,20.40
2014,06,22,13,52,20.40
2014,06,22,13,53,20.30
2014,06,22,13,54,20.30
2014,06,22,13,55,20.30
2014,06,22,13,56,20.30
2014,06,22,13,57,20.30
2014,06,22,13,58,20.30
2014,06,22,13,59,20.30
2014,06,22,14,00,20.40
2014,06,22,14,01,20.40
2014,06,22,14,02,20.50
2014,06,22,14,03,20.60
2014,06,22,14,04,20.60
2014,06,22,14,05,20.60
2014,06,22,14,06,20.60
2014,06,22,14,07,20.70
2014,06,22,14,08,20.70
2014,06,22,14,09,20.80
2014,06,22,14,10,20.90
2014,06,22,14,11,21.00
2014,06,22,14,12,21.00
2014,06,22,14,13,21.10
2014,06,22,14,14,21.10
2014,06,22,14,15,21.10
2014,06,22,14,16,21.00
2014,06,22,14,17,20.90
2014,06,22,14,18,20.90
2014,06,22,14,19,20.90
2014,06,22,14,20,21.00
2014,06,22,14,21,21.00
2014,06,22,14,22,21.10
2014,06,22,14,23,21.10
2014,06,22,14,24,21.10
2014,06,22,14,25,21.20
2014,06,22,14,26,21.20
2014,06,22,14,27,21.20
2014,06,22,14,28,21.30
2014,06,22,14,29,21.30
2014,06,22,14,30,21.30
2014,06,22,14,31,21.30
2014,06,22,14,32,21.30
2014,06,22,14,33,21.30
2014,06,22,14,34,21.40
2014,06,22,14,35,21.40
2014,06,22,14,36,21.40
2014,06,22,14,37,21.40
2014,06,22,14,38,21.40
2014,06,22,14,39,21.40
2014,06,22,14,40,21.40
2014,06,22,14,41,21.30
2014,06,22,14,42,21.30
2014,06,22,14,43,21.30
2014,06,22,14,44,21.30
2014,06,22,14,45,21.30
2014,06,22,14,46,21.30
2014,06,22,14,47,21.40
2014,06,22,14,48,21.40
2014,06,22,14,49,21.40
2014,06,22,14,50,21.50
2014,06,22,14,51,21.50
2014,06,22,14,52,21.60
2014,06,22,14,53,21.60
2014,06,22,14,54,21.60
2014,06,22,14,55,21.70
2014,06,22,14,56,21.70
2014,06,22,14,57,21.70
2014,06,22,14,58,21.70
2014,06,22,14,59,21.80
2014,06,22,15,00,21.70
2014,06,22,15,01,21.70
2014,06,22,15,02,21.60
2014,06,22,15,03,21.50
2014,06,22,15,04,21.40
2014,06,22,15,05,21.40
2014,06,22,15,06,21.40
2014,06,22,15,07,21.40
2014,06,22,15,08,21.40
2014,06,22,15,09,21.40
2014,06,22,15,10,21.30
2014,06,22,15,11,21.20
2014,06,22,15,12,21.20
2014,06,22,15,13,21.10
2014,06,22,15,14,21.10
2014,06,22,15,15,21.10
2014,06,22,15,16,21.20
2014,06,22,15,17,21.20
2014,06,22,15,18,21.20
2014,06,22,15,19,21.30
2014,06,22,15,20,21.30
2014,06,22,15,21,21.30
2014,06,22,15,22,21.30
2014,06,22,15,23,21.40
2014,06,22,15,24,21.40
2014,06,22,15,25,21.40
2014,06,22,15,26,21.30
2014,06,22,15,27,21.40
2014,06,22,15,28,21.40
2014,06,22,15,29,21.30
2014,06,22,15,30,21.30
2014,06,22,15,31,21.20
2014,06,22,15,32,21.20
2014,06,22,15,33,21.20
2014,06,22,15,34,21.10
2014,06,22,15,35,21.20
2014,06,22,15,36,21.20
2014,06,22,15,37,21.20
2014,06,22,15,38,21.30
2014,06,22,15,39,21.30
2014,06,22,15,40,21.40
2014,06,22,15,41,21.40
2014,06,22,15,42,21.50
2014,06,22,15,43,21.60
2014,06,22,15,44,21.80
2014,06,22,15,45,21.90
2014,06,22,15,46,22.00
2014,06,22,15,47,22.00
2014,06,22,15,48,22.00
2014,06,22,15,49,22.00
2014,06,22,15,50,22.10
2014,06,22,15,51,22.10
2014,06,22,15,52,22.00
2014,06,22,15,53,22.00
2014,06,22,15,54,22.00
2014,06,22,15,55,22.00
2014,06,22,15,56,22.00
2014,06,22,15,57,22.00
2014,06,22,15,58,22.00
2014,06,22,15,59,22.00
2014,06,22,16,00,22.10
2014,06,22,16,01,22.20
2014,06,22,16,02,22.20
2014,06,22,16,03,22.20
2014,06,22,16,04,22.20
2014,06,22,16,05,22.20
2014,06,22,16,06,22.10
2014,06,22,16,07,22.00
2014,06,22,16,08,22.00
2014,06,22,16,09,22.00
2014,06,22,16,10,22.00
2014,06,22,16,11,21.90
2014,06,22,16,12,21.90
2014,06,22,16,13,21.90
2014,06,22,16,14,21.90
2014,06,22,16,15,21.80
2014,06,22,16,16,21.90
2014,06,22,16,17,21.90
2014,06,22,16,18,21.90
2014,06,22,16,19,21.90
2014,06,22,16,20,22.00
2014,06,22,16,21,22.10
2014,06,22,16,22,22.20
2014,06,22,16,23,22.30
2014,06,22,16,24,22.40
2014,06,22,16,25,22.40
2014,06,22,16,26,22.40
2014,06,22,16,27,22.40
2014,06,22,16,28,22.40
2014,06,22,16,29,22.50
2014,06,22,16,30,22.60
2014,06,22,16,31,22.70
2014,06,22,16,32,22.80
2014,06,22,16,33,22.90
2014,06,22,16,34,23.10
2014,06,22,16,35,23.20
2014,06,22,16,36,23.20
2014,06,22,16,37,23.10
2014,06,22,16,38,23.00
2014,06,22,16,39,22.90
2014,06,22,16,40,22.80
2014,06,22,16,41,22.80
2014,06,22,16,42,22.80
2014,06,22,16,43,22.80
2014,06,22,16,44,22.80
2014,06,22,16,45,22.80
2014,06,22,16,46,22.90
2014,06,22,16,47,23.10
2014,06,22,16,48,23.20
2014,06,22,16,49,23.20
2014,06,22,16,50,23.30
2014,06,22,16,51,23.30
2014,06,22,16,52,23.40
2014,06,22,16,53,23.40
2014,06,22,16,54,23.40
2014,06,22,16,55,23.40
2014,06,22,16,56,23.40
2014,06,22,16,57,23.30
2014,06,22,16,58,23.30
2014,06,22,16,59,23.20
2014,06,22,17,00,23.20
2014,06,22,17,01,23.10
2014,06,22,17,02,23.20
2014,06,22,17,03,23.20
2014,06,22,17,04,23.20
2014,06,22,17,05,23.30
2014,06,22,17,06,23.20
2014,06,22,17,07,23.20
2014,06,22,17,08,23.10
2014,06,22,17,09,23.10
2014,06,22,17,10,23.10
2014,06,22,17,11,23.10
2014,06,22,17,12,23.20
2014,06,22,17,13,23.20
2014,06,22,17,14,23.20
2014,06,22,17,15,23.30
2014,06,22,17,16,23.30
2014,06,22,17,17,23.30
2014,06,22,17,18,23.30
2014,06,22,17,19,23.30
2014,06,22,17,20,23.20
2014,06,22,17,21,23.20
2014,06,22,17,22,23.10
2014,06,22,17,23,23.10
2014,06,22,17,24,23.10
2014,06,22,17,25,23.10
2014,06,22,17,26,23.10
2014,06,22,17,27,23.10
2014,06,22,17,28,23.20
2014,06,22,17,29,23.20
2014,06,22,17,30,23.20
2014,06,22,17,31,23.20
2014,06,22,17,32,23.30
2014,06,22,17,33,23.30